| time (UTC) | temp C | wind direction | speed KPH | gust KPH | rain 1hr cm | rain 24hr cm | rain mn cm | humidity % | barometer mb |
| 20260906040011 | 14 | 257 | 0.0 | 0.0 | 0.00 | 0.00 | 0.00 | 35 | 1018.4 |
| 20260906035504 | 14 | 257 | 0.0 | 0.0 | 0.00 | 0.00 | 0.00 | 35 | 1018.4 |
| 20260906035008 | 14 | 258 | 0.0 | 0.0 | 0.00 | 0.00 | 0.00 | 35 | 1018.3 |
| 20260906034506 | 14 | 255 | 0.0 | 0.0 | 0.00 | 0.00 | 0.00 | 35 | 1018.2 |
| 20260906034352 | 13 | 252 | 0.0 | 0.0 | 0.00 | 0.00 | 0.00 | 36 | 1018.1 |
| 20260906034157 | 13 | 252 | 0.0 | 0.0 | 0.00 | 0.00 | 0.00 | 36 | 1018.0 |
| 20260906033008 | 13 | 314 | 0.0 | 0.0 | 0.00 | 0.00 | 0.00 | 36 | 1018.0 |
| 20260906032506 | 13 | 314 | 0.0 | 0.0 | 0.00 | 0.00 | 0.00 | 36 | 1017.9 |
| 20260906032005 | 13 | 309 | 0.0 | 0.0 | 0.00 | 0.00 | 0.00 | 36 | 1018.0 |
| 20260906031505 | 13 | 313 | 0.0 | 0.0 | 0.00 | 0.00 | 0.00 | 36 | 1017.9 |
| 20260906031005 | 13 | 313 | 0.0 | 0.0 | 0.00 | 0.00 | 0.00 | 36 | 1017.9 |
| 20260906030506 | 14 | 313 | 0.0 | 0.0 | 0.00 | 0.00 | 0.00 | 36 | 1017.8 |
| 20260906030007 | 14 | 313 | 0.0 | 0.0 | 0.00 | 0.00 | 0.00 | 36 | 1017.8 |
| 20260906025506 | 14 | 314 | 0.0 | 0.0 | 0.00 | 0.00 | 0.00 | 36 | 1017.6 |
| 20260906025006 | 14 | 69 | 0.0 | 0.0 | 0.00 | 0.00 | 0.00 | 37 | 1017.6 |
| 20260906024917 | 14 | 66 | 0.0 | 0.0 | 0.00 | 0.00 | 0.00 | 37 | 1017.4 |
| 20260906024006 | 14 | 271 | 0.0 | 0.0 | 0.00 | 0.00 | 0.00 | 37 | 1017.4 |
| 20260906023507 | 14 | 269 | 0.0 | 0.0 | 0.00 | 0.00 | 0.00 | 37 | 1017.2 |
| 20260906023005 | 14 | 269 | 0.0 | 0.0 | 0.00 | 0.00 | 0.00 | 37 | 1017.1 |
| 20260906022505 | 14 | 269 | 0.0 | 0.0 | 0.00 | 0.00 | 0.00 | 37 | 1017.2 |
| 20260906022006 | 14 | 269 | 0.0 | 0.0 | 0.00 | 0.00 | 0.00 | 37 | 1017.2 |
| 20260906021505 | 15 | 271 | 0.0 | 0.0 | 0.00 | 0.00 | 0.00 | 37 | 1017.1 |
| 20260906021006 | 15 | 269 | 0.0 | 0.0 | 0.00 | 0.00 | 0.00 | 37 | 1017.1 |
| 20260906020504 | 15 | 271 | 0.0 | 0.0 | 0.00 | 0.00 | 0.00 | 37 | 1016.9 |
| 20260906020412 | 15 | 269 | 0.0 | 0.0 | 0.00 | 0.00 | 0.00 | 36 | 1016.8 |
| 20260906015504 | 15 | 271 | 0.0 | 0.0 | 0.00 | 0.00 | 0.00 | 36 | 1016.7 |
| 20260906015004 | 15 | 271 | 0.0 | 0.0 | 0.00 | 0.00 | 0.00 | 36 | 1016.6 |
| 20260906014504 | 15 | 268 | 0.0 | 0.0 | 0.00 | 0.00 | 0.00 | 36 | 1016.7 |
| 20260906014418 | 15 | 234 | 0.0 | 1.6 | 0.00 | 0.00 | 0.00 | 37 | 1016.5 |
| 20260906013506 | 15 | 234 | 0.0 | 1.6 | 0.00 | 0.00 | 0.00 | 37 | 1016.5 |
| 20260906013006 | 15 | 45 | 0.0 | 0.0 | 0.00 | 0.00 | 0.00 | 37 | 1016.6 |
| 20260906012505 | 15 | 45 | 0.0 | 0.0 | 0.00 | 0.00 | 0.00 | 38 | 1016.6 |
| 20260906012334 | 15 | 45 | 0.0 | 0.0 | 0.00 | 0.00 | 0.00 | 37 | 1016.4 |
| 20260906012146 | 15 | 45 | 0.0 | 0.0 | 0.00 | 0.00 | 0.00 | 38 | 1016.5 |
| 20260906011002 | 15 | 45 | 0.0 | 0.0 | 0.00 | 0.00 | 0.00 | 38 | 1016.3 |
| 20260906010503 | 15 | 45 | 0.0 | 0.0 | 0.00 | 0.00 | 0.00 | 38 | 1016.3 |
| 20260906010005 | 16 | 45 | 0.0 | 0.0 | 0.00 | 0.00 | 0.00 | 37 | 1016.3 |
| 20260906005503 | 16 | 45 | 0.0 | 0.0 | 0.00 | 0.00 | 0.00 | 37 | 1016.2 |
| 20260906005003 | 16 | 45 | 0.0 | 0.0 | 0.00 | 0.00 | 0.00 | 37 | 1016.3 |
| 20260906004501 | 16 | 55 | 0.0 | 0.0 | 0.00 | 0.00 | 0.00 | 37 | 1016.3 |
| 20260906004001 | 16 | 55 | 0.0 | 0.0 | 0.00 | 0.00 | 0.00 | 36 | 1016.3 |
| 20260906003914 | 16 | 55 | 0.0 | 0.0 | 0.00 | 0.00 | 0.00 | 36 | 1016.2 |
| 20260906003002 | 16 | 285 | 0.0 | 0.0 | 0.00 | 0.00 | 0.00 | 36 | 1016.3 |
| 20260906002504 | 16 | 285 | 0.0 | 0.0 | 0.00 | 0.00 | 0.00 | 36 | 1016.3 |
| 20260906002003 | 16 | 283 | 0.0 | 0.0 | 0.00 | 0.00 | 0.00 | 36 | 1016.1 |
| 20260906001858 | 16 | 283 | 0.0 | 0.0 | 0.00 | 0.00 | 0.00 | 36 | 1015.9 |
| 20260906001700 | 16 | 285 | 0.0 | 0.0 | 0.00 | 0.00 | 0.00 | 36 | 1016.0 |
| 20260906000502 | 16 | 283 | 0.0 | 0.0 | 0.00 | 0.00 | 0.00 | 37 | 1015.9 |
| 20260906000000 | 16 | 166 | 0.0 | 0.0 | 0.00 | 0.00 | 0.00 | 37 | 1015.9 |
| 20260905235502 | 16 | 166 | 0.0 | 0.0 | 0.00 | 0.00 | 0.00 | 37 | 1016.0 |
| 20260905235001 | 16 | 166 | 0.0 | 0.0 | 0.00 | 0.00 | 0.00 | 37 | 1015.9 |
| 20260905234500 | 16 | 166 | 0.0 | 0.0 | 0.00 | 0.00 | 0.00 | 37 | 1015.9 |
| 20260905234000 | 16 | 166 | 0.0 | 0.0 | 0.00 | 0.00 | 0.00 | 38 | 1015.9 |
| 20260905233500 | 16 | 166 | 0.0 | 0.0 | 0.00 | 0.00 | 0.00 | 38 | 1015.8 |
| 20260905233002 | 16 | 166 | 0.0 | 0.0 | 0.00 | 0.00 | 0.00 | 38 | 1015.9 |
| 20260905232459 | 16 | 166 | 0.0 | 0.0 | 0.00 | 0.00 | 0.00 | 38 | 1016.0 |
| 20260905232001 | 16 | 166 | 0.0 | 0.0 | 0.00 | 0.00 | 0.00 | 38 | 1016.0 |
| 20260905231459 | 16 | 166 | 0.0 | 0.0 | 0.00 | 0.00 | 0.00 | 38 | 1015.9 |
| 20260905231415 | 16 | 166 | 0.0 | 0.0 | 0.00 | 0.00 | 0.00 | 38 | 1015.9 |
| 20260905230501 | 16 | 166 | 0.0 | 0.0 | 0.00 | 0.00 | 0.00 | 38 | 1016.0 |
| 20260905230359 | 16 | 166 | 0.0 | 0.0 | 0.00 | 0.00 | 0.00 | 38 | 1015.9 |
| 20260905225500 | 17 | 166 | 0.0 | 0.0 | 0.00 | 0.00 | 0.00 | 38 | 1015.9 |
| 20260905225001 | 17 | 166 | 0.0 | 0.0 | 0.00 | 0.00 | 0.00 | 38 | 1015.7 |
| 20260905224459 | 17 | 190 | 0.0 | 0.0 | 0.00 | 0.00 | 0.00 | 38 | 1015.7 |
| 20260905224420 | 17 | 197 | 0.0 | 0.0 | 0.00 | 0.00 | 0.00 | 38 | 1015.6 |
| 20260905223912 | 16 | 196 | 0.0 | 0.0 | 0.00 | 0.00 | 0.00 | 39 | 1015.7 |
| 20260905222959 | 17 | 196 | 0.0 | 0.0 | 0.00 | 0.00 | 0.00 | 39 | 1015.8 |
| 20260905222909 | 17 | 196 | 0.0 | 0.0 | 0.00 | 0.00 | 0.00 | 39 | 1015.9 |
| 20260905221958 | 17 | 196 | 0.0 | 0.0 | 0.00 | 0.00 | 0.00 | 39 | 1015.8 |
| 20260905221912 | 17 | 196 | 0.0 | 0.0 | 0.00 | 0.00 | 0.00 | 39 | 1015.8 |
| 20260905220958 | 17 | 196 | 0.0 | 0.0 | 0.00 | 0.00 | 0.00 | 39 | 1015.9 |
| 20260905220458 | 17 | 196 | 0.0 | 0.0 | 0.00 | 0.00 | 0.00 | 40 | 1015.9 |
| 20260905215959 | 17 | 196 | 0.0 | 0.0 | 0.00 | 0.00 | 0.00 | 40 | 1016.0 |
| 20260905215459 | 17 | 196 | 0.0 | 0.0 | 0.00 | 0.00 | 0.00 | 41 | 1016.0 |
| 20260905214959 | 17 | 196 | 0.0 | 0.0 | 0.00 | 0.00 | 0.00 | 41 | 1016.0 |
| 20260905214458 | 17 | 196 | 0.0 | 0.0 | 0.00 | 0.00 | 0.00 | 41 | 1016.0 |
| 20260905213957 | 17 | 196 | 0.0 | 0.0 | 0.00 | 0.00 | 0.00 | 42 | 1016.0 |
| 20260905213458 | 17 | 196 | 0.0 | 0.0 | 0.00 | 0.00 | 0.00 | 42 | 1015.9 |
| 20260905212957 | 17 | 196 | 0.0 | 0.0 | 0.00 | 0.00 | 0.00 | 42 | 1015.9 |
| 20260905212502 | 17 | 196 | 0.0 | 0.0 | 0.00 | 0.00 | 0.00 | 42 | 1016.0 |
| 20260905211956 | 17 | 196 | 0.0 | 0.0 | 0.00 | 0.00 | 0.00 | 43 | 1016.0 |
| 20260905211921 | 17 | 196 | 0.0 | 0.0 | 0.00 | 0.00 | 0.00 | 43 | 1015.9 |
| 20260905211415 | 17 | 196 | 0.0 | 0.0 | 0.00 | 0.00 | 0.00 | 43 | 1015.9 |
| 20260905210458 | 17 | 196 | 0.0 | 0.0 | 0.00 | 0.00 | 0.00 | 43 | 1015.9 |
| 20260905205958 | 17 | 259 | 0.0 | 0.0 | 0.00 | 0.00 | 0.00 | 44 | 1016.0 |
| 20260905205456 | 17 | 259 | 0.0 | 0.0 | 0.00 | 0.00 | 0.00 | 44 | 1015.9 |
| 20260905204958 | 17 | 259 | 0.0 | 0.0 | 0.00 | 0.00 | 0.00 | 45 | 1015.9 |
| 20260905204456 | 17 | 258 | 0.0 | 0.0 | 0.00 | 0.00 | 0.00 | 45 | 1015.9 |
| 20260905204001 | 17 | 259 | 0.0 | 0.0 | 0.00 | 0.00 | 0.00 | 46 | 1015.8 |
| 20260905203456 | 17 | 259 | 0.0 | 0.0 | 0.00 | 0.00 | 0.00 | 47 | 1015.9 |
| 20260905202956 | 17 | 258 | 0.0 | 0.0 | 0.00 | 0.00 | 0.00 | 47 | 1015.8 |
| 20260905202455 | 17 | 259 | 0.0 | 0.0 | 0.00 | 0.00 | 0.00 | 48 | 1015.8 |
| 20260905201956 | 17 | 258 | 0.0 | 0.0 | 0.00 | 0.00 | 0.00 | 48 | 1015.8 |
| 20260905201456 | 17 | 259 | 0.0 | 0.0 | 0.00 | 0.00 | 0.00 | 49 | 1015.7 |
| 20260905201422 | 17 | 258 | 0.0 | 0.0 | 0.00 | 0.00 | 0.00 | 50 | 1015.7 |
| 20260905200456 | 17 | 259 | 0.0 | 0.0 | 0.00 | 0.00 | 0.00 | 51 | 1015.7 |
| 20260905195956 | 17 | 259 | 0.0 | 0.0 | 0.00 | 0.00 | 0.00 | 51 | 1015.6 |
| 20260905195457 | 17 | 259 | 0.0 | 0.0 | 0.00 | 0.00 | 0.00 | 51 | 1015.6 |
| 20260905194955 | 17 | 257 | 0.0 | 0.0 | 0.00 | 0.00 | 0.00 | 52 | 1015.5 |
| 20260905194457 | 17 | 247 | 0.0 | 0.0 | 0.00 | 0.00 | 0.00 | 54 | 1015.6 |
| 20260905193956 | 17 | 261 | 0.0 | 0.0 | 0.00 | 0.00 | 0.00 | 56 | 1015.5 |
| 20260905193455 | 17 | 261 | 0.0 | 0.0 | 0.00 | 0.00 | 0.00 | 55 | 1015.6 |
| 20260905192954 | 17 | 261 | 0.0 | 0.0 | 0.00 | 0.00 | 0.00 | 55 | 1015.5 |
| 20260905192454 | 18 | 261 | 0.0 | 1.6 | 0.00 | 0.00 | 0.00 | 54 | 1015.5 |
| 20260905191955 | 18 | 259 | 0.0 | 8.0 | 0.00 | 0.00 | 0.00 | 52 | 1015.5 |
| 20260905191454 | 17 | 283 | 0.0 | 8.0 | 0.00 | 0.00 | 0.00 | 50 | 1015.6 |
| 20260905190956 | 17 | 283 | 0.0 | 0.0 | 0.00 | 0.00 | 0.00 | 51 | 1015.4 |
| 20260905190917 | 17 | 254 | 0.0 | 0.0 | 0.00 | 0.00 | 0.00 | 56 | 1015.4 |
| 20260905185955 | 17 | 254 | 0.0 | 0.0 | 0.00 | 0.00 | 0.00 | 58 | 1015.3 |
| 20260905185911 | 17 | 254 | 0.0 | 0.0 | 0.00 | 0.00 | 0.00 | 58 | 1015.4 |
| 20260905184954 | 17 | 254 | 0.0 | 0.0 | 0.00 | 0.00 | 0.00 | 59 | 1015.5 |
| 20260905184454 | 17 | 252 | 0.0 | 0.0 | 0.00 | 0.00 | 0.00 | 61 | 1015.5 |
| 20260905183954 | 18 | 254 | 0.0 | 0.0 | 0.00 | 0.00 | 0.00 | 63 | 1015.4 |
| 20260905183455 | 18 | 254 | 0.0 | 0.0 | 0.00 | 0.00 | 0.00 | 65 | 1015.6 |
| 20260905182954 | 18 | 254 | 0.0 | 0.0 | 0.00 | 0.00 | 0.00 | 66 | 1015.5 |
| 20260905182454 | 18 | 254 | 0.0 | 0.0 | 0.00 | 0.00 | 0.00 | 67 | 1015.5 |
| 20260905182403 | 19 | 252 | 0.0 | 0.0 | 0.00 | 0.00 | 0.00 | 67 | 1015.4 |
| 20260905181454 | 19 | 254 | 0.0 | 0.0 | 0.00 | 0.00 | 0.00 | 67 | 1015.4 |
| 20260905181406 | 19 | 272 | 0.0 | 1.6 | 0.00 | 0.00 | 0.00 | 66 | 1015.4 |
| 20260905180452 | 18 | 258 | 0.0 | 1.6 | 0.00 | 0.00 | 0.00 | 63 | 1015.3 |
| 20260905180355 | 18 | 274 | 0.0 | 0.0 | 0.00 | 0.00 | 0.00 | 62 | 1015.3 |
| 20260905175455 | 18 | 250 | 0.0 | 0.0 | 0.00 | 0.00 | 0.00 | 64 | 1015.2 |
| 20260905174953 | 18 | 250 | 0.0 | 0.0 | 0.00 | 0.00 | 0.00 | 65 | 1015.2 |
| 20260905174454 | 18 | 250 | 0.0 | 0.0 | 0.00 | 0.00 | 0.00 | 66 | 1015.2 |
| 20260905173957 | 18 | 250 | 0.0 | 0.0 | 0.00 | 0.00 | 0.00 | 67 | 1015.2 |
| 20260905173451 | 19 | 250 | 0.0 | 0.0 | 0.00 | 0.00 | 0.00 | 68 | 1015.2 |
| 20260905172952 | 19 | 250 | 0.0 | 0.0 | 0.00 | 0.00 | 0.00 | 69 | 1015.2 |
| 20260905172451 | 19 | 250 | 0.0 | 0.0 | 0.00 | 0.00 | 0.00 | 70 | 1015.2 |
| 20260905171951 | 20 | 248 | 0.0 | 0.0 | 0.00 | 0.00 | 0.00 | 71 | 1015.2 |
| 20260905171454 | 20 | 250 | 0.0 | 0.0 | 0.00 | 0.00 | 0.00 | 72 | 1015.1 |
| 20260905170951 | 20 | 247 | 0.0 | 0.0 | 0.00 | 0.00 | 0.00 | 72 | 1015.2 |
| 20260905170453 | 20 | 248 | 0.0 | 0.0 | 0.00 | 0.00 | 0.00 | 73 | 1015.0 |
| 20260905165952 | 21 | 248 | 0.0 | 0.0 | 0.00 | 0.00 | 0.00 | 73 | 1015.0 |
| 20260905165453 | 21 | 248 | 0.0 | 0.0 | 0.00 | 0.00 | 0.00 | 73 | 1015.0 |
| 20260905164951 | 22 | 248 | 0.0 | 0.0 | 0.00 | 0.00 | 0.00 | 74 | 1015.0 |
| 20260905164453 | 22 | 247 | 0.0 | 0.0 | 0.00 | 0.00 | 0.00 | 73 | 1015.0 |
| 20260905163951 | 23 | 247 | 0.0 | 0.0 | 0.00 | 0.00 | 0.00 | 73 | 1015.0 |
| 20260905163453 | 23 | 248 | 0.0 | 0.0 | 0.00 | 0.00 | 0.00 | 73 | 1015.0 |
| 20260905162952 | 24 | 248 | 0.0 | 0.0 | 0.00 | 0.00 | 0.00 | 72 | 1015.0 |
| 20260905162904 | 25 | 248 | 0.0 | 0.0 | 0.00 | 0.00 | 0.00 | 71 | 1015.0 |
| 20260905162408 | 26 | 248 | 0.0 | 0.0 | 0.00 | 0.00 | 0.00 | 69 | 1014.9 |
| 20260905161450 | 26 | 248 | 0.0 | 0.0 | 0.00 | 0.00 | 0.00 | 68 | 1014.8 |
| 20260905160951 | 27 | 248 | 0.0 | 0.0 | 0.00 | 0.00 | 0.00 | 66 | 1014.8 |
| 20260905160449 | 27 | 248 | 0.0 | 0.0 | 0.00 | 0.00 | 0.00 | 67 | 1014.7 |
| 20260905155949 | 28 | 248 | 0.0 | 0.0 | 0.00 | 0.00 | 0.00 | 65 | 1014.8 |
| 20260905155907 | 28 | 248 | 0.0 | 0.0 | 0.00 | 0.00 | 0.00 | 63 | 1014.5 |
| 20260905154949 | 29 | 248 | 0.0 | 0.0 | 0.00 | 0.00 | 0.00 | 62 | 1014.5 |
| 20260905154908 | 30 | 248 | 0.0 | 0.0 | 0.00 | 0.00 | 0.00 | 61 | 1014.5 |
| 20260905153949 | 30 | 248 | 0.0 | 0.0 | 0.00 | 0.00 | 0.00 | 59 | 1014.7 |
| 20260905153451 | 30 | 248 | 0.0 | 0.0 | 0.00 | 0.00 | 0.00 | 60 | 1014.7 |
| 20260905152950 | 29 | 248 | 0.0 | 0.0 | 0.00 | 0.00 | 0.00 | 54 | 1014.5 |
| 20260905152451 | 29 | 243 | 0.0 | 0.0 | 0.00 | 0.00 | 0.00 | 54 | 1014.5 |
| 20260905151948 | 29 | 226 | 0.0 | 0.0 | 0.00 | 0.00 | 0.00 | 51 | 1014.5 |
| 20260905151450 | 29 | 252 | 0.0 | 0.0 | 0.00 | 0.00 | 0.00 | 50 | 1014.5 |
| 20260905150950 | 30 | 166 | 0.0 | 0.0 | 0.00 | 0.00 | 0.00 | 51 | 1014.7 |
| 20260905150451 | 30 | 238 | 0.0 | 0.0 | 0.00 | 0.00 | 0.00 | 51 | 1014.8 |
| 20260905145949 | 30 | 237 | 0.0 | 0.0 | 0.00 | 0.00 | 0.00 | 50 | 1014.9 |
| 20260905145451 | 30 | 135 | 0.0 | 1.6 | 0.00 | 0.00 | 0.00 | 51 | 1014.8 |
| 20260905145400 | 30 | 265 | 0.0 | 6.4 | 0.00 | 0.00 | 0.00 | 51 | 1014.9 |
| 20260905144448 | 30 | 258 | 0.0 | 6.4 | 0.00 | 0.00 | 0.00 | 51 | 1014.8 |
| 20260905143948 | 30 | 276 | 0.0 | 0.0 | 0.00 | 0.00 | 0.00 | 52 | 1014.9 |
| 20260905143448 | 30 | 254 | 0.0 | 3.2 | 0.00 | 0.00 | 0.00 | 51 | 1014.9 |
| 20260905142947 | 30 | 244 | 0.0 | 3.2 | 0.00 | 0.00 | 0.00 | 51 | 1014.9 |
| 20260905142447 | 30 | 247 | 0.0 | 1.6 | 0.00 | 0.00 | 0.00 | 51 | 1014.9 |
| 20260905141947 | 30 | 221 | 0.0 | 3.2 | 0.00 | 0.00 | 0.00 | 51 | 1014.9 |
| 20260905141447 | 30 | 157 | 0.0 | 3.2 | 0.00 | 0.00 | 0.00 | 51 | 1015.0 |
| 20260905140947 | 30 | 234 | 0.0 | 1.6 | 0.00 | 0.00 | 0.00 | 49 | 1015.0 |
| 20260905140449 | 30 | 214 | 0.0 | 6.4 | 0.00 | 0.00 | 0.00 | 51 | 1015.0 |
| 20260905135946 | 30 | 243 | 0.0 | 6.4 | 0.00 | 0.00 | 0.00 | 49 | 1015.0 |
| 20260905135451 | 30 | 245 | 0.0 | 6.4 | 0.00 | 0.00 | 0.00 | 52 | 1015.1 |
| 20260905135404 | 30 | 275 | 0.0 | 6.4 | 0.00 | 0.00 | 0.00 | 50 | 1015.2 |
| 20260905134446 | 30 | 162 | 0.0 | 11.3 | 0.00 | 0.00 | 0.00 | 50 | 1015.2 |
| 20260905133946 | 29 | 244 | 1.6 | 11.3 | 0.00 | 0.00 | 0.00 | 49 | 1015.1 |
| 20260905133446 | 29 | 271 | 0.0 | 1.6 | 0.00 | 0.00 | 0.00 | 50 | 1015.2 |
| 20260905132948 | 29 | 275 | 0.0 | 9.7 | 0.00 | 0.00 | 0.00 | 49 | 1015.3 |
| 20260905132448 | 29 | 255 | 0.0 | 9.7 | 0.00 | 0.00 | 0.00 | 47 | 1015.3 |
| 20260905132406 | 30 | 243 | 0.0 | 4.8 | 0.00 | 0.00 | 0.00 | 48 | 1015.4 |
| 20260905131446 | 30 | 206 | 0.0 | 4.8 | 0.00 | 0.00 | 0.00 | 47 | 1015.4 |
| 20260905130949 | 30 | 262 | 0.0 | 4.8 | 0.00 | 0.00 | 0.00 | 48 | 1015.4 |
| 20260905130447 | 30 | 237 | 0.0 | 4.8 | 0.00 | 0.00 | 0.00 | 46 | 1015.5 |
| 20260905130349 | 30 | 250 | 1.6 | 4.8 | 0.00 | 0.00 | 0.00 | 45 | 1015.6 |
| 20260905125445 | 30 | 235 | 0.0 | 4.8 | 0.00 | 0.00 | 0.00 | 50 | 1015.6 |
| 20260905124947 | 30 | 149 | 0.0 | 9.7 | 0.00 | 0.00 | 0.00 | 46 | 1015.6 |
| 20260905124448 | 30 | 186 | 0.0 | 9.7 | 0.00 | 0.00 | 0.00 | 46 | 1015.6 |
| 20260905123948 | 30 | 113 | 0.0 | 4.8 | 0.00 | 0.00 | 0.00 | 45 | 1015.7 |
| 20260905123859 | 30 | 244 | 0.0 | 4.8 | 0.00 | 0.00 | 0.00 | 44 | 1015.8 |
| 20260905122946 | 30 | 228 | 0.0 | 4.8 | 0.00 | 0.00 | 0.00 | 47 | 1015.9 |
| 20260905122859 | 30 | 154 | 0.0 | 4.8 | 0.00 | 0.00 | 0.00 | 46 | 1015.9 |
| 20260905121945 | 30 | 151 | 0.0 | 6.4 | 0.00 | 0.00 | 0.00 | 46 | 1016.0 |
| 20260905121445 | 30 | 140 | 0.0 | 9.7 | 0.00 | 0.00 | 0.00 | 46 | 1016.1 |
| 20260905121323 | 30 | 247 | 0.0 | 4.8 | 0.00 | 0.00 | 0.00 | 47 | 1016.2 |
| 20260905121130 | 30 | 244 | 3.2 | 9.7 | 0.00 | 0.00 | 0.00 | 45 | 1016.2 |
| 20260905120633 | 30 | 176 | 0.0 | 4.8 | 0.00 | 0.00 | 0.00 | 47 | 1016.1 |
| 20260905115853 | 30 | 266 | 0.0 | 4.8 | 0.00 | 0.00 | 0.00 | 46 | 1016.2 |
| 20260905114940 | 30 | 140 | 0.0 | 1.6 | 0.00 | 0.00 | 0.00 | 48 | 1016.2 |
| 20260905114435 | 30 | 166 | 0.0 | 3.2 | 0.00 | 0.00 | 0.00 | 46 | 1016.3 |
| 20260905113935 | 29 | 123 | 0.0 | 8.0 | 0.00 | 0.00 | 0.00 | 50 | 1016.2 |
| 20260905113432 | 29 | 255 | 0.0 | 8.0 | 0.00 | 0.00 | 0.00 | 49 | 1016.3 |
| 20260905112931 | 29 | 142 | 1.6 | 11.3 | 0.00 | 0.00 | 0.00 | 47 | 1016.4 |
| 20260905112850 | 29 | 138 | 3.2 | 11.3 | 0.00 | 0.00 | 0.00 | 47 | 1016.4 |
| 20260905111931 | 29 | 265 | 0.0 | 8.0 | 0.00 | 0.00 | 0.00 | 47 | 1016.4 |
| 20260905111847 | 29 | 252 | 0.0 | 8.0 | 0.00 | 0.00 | 0.00 | 47 | 1016.5 |
| 20260905110931 | 29 | 186 | 3.2 | 8.0 | 0.00 | 0.00 | 0.00 | 48 | 1016.5 |
| 20260905110432 | 29 | 265 | 3.2 | 11.3 | 0.00 | 0.00 | 0.00 | 45 | 1016.5 |
| 20260905110254 | 30 | 168 | 1.6 | 8.0 | 0.00 | 0.00 | 0.00 | 46 | 1016.7 |
| 20260905110243 | 30 | 189 | 0.0 | 6.4 | 0.00 | 0.00 | 0.00 | 46 | 1016.7 |
| 20260905104433 | 30 | 275 | 1.6 | 8.0 | 0.00 | 0.00 | 0.00 | 48 | 1016.8 |
| 20260905103932 | 30 | 250 | 1.6 | 8.0 | 0.00 | 0.00 | 0.00 | 45 | 1016.7 |
| 20260905103431 | 30 | 151 | 1.6 | 9.7 | 0.00 | 0.00 | 0.00 | 49 | 1016.7 |
| 20260905102936 | 30 | 219 | 4.8 | 9.7 | 0.00 | 0.00 | 0.00 | 48 | 1016.8 |
| 20260905102432 | 30 | 289 | 0.0 | 6.4 | 0.00 | 0.00 | 0.00 | 45 | 1016.8 |
| 20260905101931 | 30 | 186 | 0.0 | 6.4 | 0.00 | 0.00 | 0.00 | 48 | 1016.9 |
| 20260905101843 | 30 | 158 | 3.2 | 4.8 | 0.00 | 0.00 | 0.00 | 47 | 1016.9 |
| 20260905100928 | 30 | 223 | 1.6 | 4.8 | 0.00 | 0.00 | 0.00 | 51 | 1016.9 |
| 20260905100430 | 30 | 266 | 1.6 | 3.2 | 0.00 | 0.00 | 0.00 | 50 | 1016.9 |
| 20260905100342 | 30 | 138 | 0.0 | 9.7 | 0.00 | 0.00 | 0.00 | 50 | 1016.8 |
| 20260905095427 | 29 | 166 | 3.2 | 9.7 | 0.00 | 0.00 | 0.00 | 52 | 1016.9 |
| 20260905094926 | 28 | 254 | 0.0 | 6.4 | 0.00 | 0.00 | 0.00 | 51 | 1016.8 |
| 20260905094427 | 28 | 142 | 3.2 | 6.4 | 0.00 | 0.00 | 0.00 | 52 | 1016.9 |
| 20260905093925 | 28 | 245 | 3.2 | 6.4 | 0.00 | 0.00 | 0.00 | 52 | 1016.9 |
| 20260905093424 | 28 | 235 | 1.6 | 8.0 | 0.00 | 0.00 | 0.00 | 52 | 1016.9 |
| 20260905093334 | 28 | 224 | 1.6 | 9.7 | 0.00 | 0.00 | 0.00 | 52 | 1016.9 |
| 20260905092422 | 28 | 135 | 3.2 | 9.7 | 0.00 | 0.00 | 0.00 | 53 | 1016.9 |
| 20260905091924 | 28 | 155 | 3.2 | 8.0 | 0.00 | 0.00 | 0.00 | 55 | 1017.0 |
| 20260905091418 | 28 | 145 | 0.0 | 4.8 | 0.00 | 0.00 | 0.00 | 56 | 1017.0 |
| 20260905090916 | 28 | 86 | 1.6 | 4.8 | 0.00 | 0.00 | 0.00 | 52 | 1017.0 |
| 20260905090418 | 28 | 276 | 3.2 | 6.4 | 0.00 | 0.00 | 0.00 | 53 | 1017.0 |
| 20260905085916 | 28 | 257 | 3.2 | 6.4 | 0.00 | 0.00 | 0.00 | 54 | 1017.1 |
| 20260905085414 | 28 | 216 | 1.6 | 3.2 | 0.00 | 0.00 | 0.00 | 54 | 1017.0 |
| 20260905084913 | 28 | 161 | 1.6 | 3.2 | 0.00 | 0.00 | 0.00 | 56 | 1017.0 |
| 20260905084414 | 27 | 137 | 1.6 | 6.4 | 0.00 | 0.00 | 0.00 | 55 | 1017.1 |
| 20260905083912 | 27 | 141 | 1.6 | 6.4 | 0.00 | 0.00 | 0.00 | 56 | 1017.1 |
| 20260905083405 | 27 | 142 | 1.6 | 6.4 | 0.00 | 0.00 | 0.00 | 58 | 1017.2 |
| 20260905082906 | 27 | 172 | 1.6 | 4.8 | 0.00 | 0.00 | 0.00 | 59 | 1017.1 |
| 20260905082404 | 27 | 164 | 1.6 | 8.0 | 0.00 | 0.00 | 0.00 | 60 | 1017.2 |
| 20260905081903 | 27 | 176 | 3.2 | 8.0 | 0.00 | 0.00 | 0.00 | 59 | 1017.1 |
| 20260905081813 | 27 | 87 | 0.0 | 6.4 | 0.00 | 0.00 | 0.00 | 61 | 1017.2 |
| 20260905080903 | 27 | 123 | 1.6 | 6.4 | 0.00 | 0.00 | 0.00 | 60 | 1017.1 |
| 20260905080405 | 27 | 125 | 3.2 | 4.8 | 0.00 | 0.00 | 0.00 | 59 | 1017.1 |
| 20260905075904 | 27 | 166 | 0.0 | 3.2 | 0.00 | 0.00 | 0.00 | 61 | 1017.1 |
| 20260905075406 | 27 | 131 | 1.6 | 3.2 | 0.00 | 0.00 | 0.00 | 62 | 1017.2 |
| 20260905074903 | 26 | 133 | 0.0 | 3.2 | 0.00 | 0.00 | 0.00 | 63 | 1017.1 |
| 20260905074405 | 26 | 131 | 0.0 | 3.2 | 0.00 | 0.00 | 0.00 | 63 | 1017.2 |
| 20260905073903 | 26 | 73 | 0.0 | 3.2 | 0.00 | 0.00 | 0.00 | 63 | 1017.1 |
| 20260905073403 | 26 | 125 | 0.0 | 3.2 | 0.00 | 0.00 | 0.00 | 66 | 1017.2 |
| 20260905073317 | 26 | 147 | 0.0 | 0.0 | 0.00 | 0.00 | 0.00 | 65 | 1017.2 |
| 20260905072405 | 26 | 155 | 0.0 | 0.0 | 0.00 | 0.00 | 0.00 | 65 | 1017.1 |
| 20260905072322 | 26 | 123 | 0.0 | 0.0 | 0.00 | 0.00 | 0.00 | 67 | 1017.1 |
| 20260905071402 | 26 | 125 | 0.0 | 0.0 | 0.00 | 0.00 | 0.00 | 68 | 1017.1 |
| 20260905071326 | 26 | 134 | 0.0 | 0.0 | 0.00 | 0.00 | 0.00 | 69 | 1017.2 |
| 20260905070402 | 25 | 134 | 0.0 | 0.0 | 0.00 | 0.00 | 0.00 | 70 | 1017.4 |
| 20260905065903 | 25 | 190 | 0.0 | 0.0 | 0.00 | 0.00 | 0.00 | 69 | 1017.4 |
| 20260905065402 | 25 | 237 | 0.0 | 0.0 | 0.00 | 0.00 | 0.00 | 71 | 1017.4 |
| 20260905065313 | 24 | 244 | 0.0 | 0.0 | 0.00 | 0.00 | 0.00 | 73 | 1017.2 |
| 20260905064403 | 23 | 244 | 0.0 | 0.0 | 0.00 | 0.00 | 0.00 | 74 | 1017.2 |
| 20260905063903 | 23 | 244 | 0.0 | 0.0 | 0.00 | 0.00 | 0.00 | 74 | 1017.2 |
| 20260905063403 | 22 | 244 | 0.0 | 0.0 | 0.00 | 0.00 | 0.00 | 74 | 1017.4 |
| 20260905063320 | 22 | 244 | 0.0 | 0.0 | 0.00 | 0.00 | 0.00 | 74 | 1017.2 |
| 20260905062404 | 22 | 250 | 0.0 | 0.0 | 0.00 | 0.00 | 0.00 | 74 | 1017.1 |
| 20260905062243 | 21 | 250 | 0.0 | 0.0 | 0.00 | 0.00 | 0.00 | 74 | 1017.2 |
| 20260905062049 | 21 | 250 | 0.0 | 0.0 | 0.00 | 0.00 | 0.00 | 74 | 1017.2 |
| 20260905060905 | 20 | 251 | 0.0 | 0.0 | 0.00 | 0.00 | 0.00 | 71 | 1017.2 |
| 20260905060820 | 20 | 251 | 0.0 | 0.0 | 0.00 | 0.00 | 0.00 | 70 | 1017.2 |
| 20260905055904 | 18 | 204 | 0.0 | 0.0 | 0.00 | 0.00 | 0.00 | 69 | 1017.2 |
| 20260905055402 | 18 | 237 | 0.0 | 0.0 | 0.00 | 0.03 | 0.00 | 69 | 1017.2 |
| 20260905054904 | 18 | 241 | 0.0 | 0.0 | 0.00 | 0.03 | 0.00 | 67 | 1017.1 |
| 20260905054752 | 18 | 281 | 0.0 | 0.0 | 0.00 | 0.03 | 0.00 | 55 | 1017.2 |
| 20260905054552 | 18 | 3 | 0.0 | 0.0 | 0.00 | 0.03 | 0.00 | 60 | 1017.1 |
| 20260905053402 | 17 | 281 | 0.0 | 0.0 | 0.00 | 0.03 | 0.00 | 49 | 1017.2 |
| 20260905052859 | 17 | 281 | 0.0 | 0.0 | 0.00 | 0.03 | 0.00 | 47 | 1017.2 |
| 20260905052357 | 16 | 281 | 0.0 | 0.0 | 0.00 | 0.03 | 0.00 | 44 | 1017.1 |
| 20260905052320 | 16 | 281 | 0.0 | 0.0 | 0.00 | 0.03 | 0.00 | 43 | 1017.1 |
| 20260905051357 | 15 | 238 | 0.0 | 0.0 | 0.00 | 0.03 | 0.00 | 40 | 1017.2 |
| 20260905050855 | 15 | 195 | 0.0 | 0.0 | 0.00 | 0.03 | 0.00 | 39 | 1017.0 |
| 20260905050356 | 14 | 195 | 0.0 | 0.0 | 0.00 | 0.03 | 0.00 | 39 | 1017.0 |
| 20260905045855 | 14 | 252 | 0.0 | 0.0 | 0.00 | 0.03 | 0.00 | 39 | 1016.9 |
| 20260905045353 | 13 | 252 | 0.0 | 1.6 | 0.00 | 0.03 | 0.00 | 40 | 1016.9 |
| 20260905044854 | 13 | 252 | 0.0 | 8.0 | 0.00 | 0.03 | 0.00 | 40 | 1016.9 |
| 20260905044355 | 12 | 252 | 1.6 | 8.0 | 0.00 | 0.03 | 0.00 | 40 | 1016.9 |
| 20260905044303 | 12 | 252 | 0.0 | 0.0 | 0.00 | 0.03 | 0.00 | 41 | 1016.9 |
| 20260905043349 | 12 | 264 | 0.0 | 0.0 | 0.00 | 0.03 | 0.00 | 41 | 1017.0 |
| 20260905043302 | 12 | 262 | 0.0 | 0.0 | 0.00 | 0.03 | 0.00 | 42 | 1016.9 |
| 20260905042349 | 12 | 264 | 0.0 | 0.0 | 0.00 | 0.03 | 0.00 | 42 | 1016.7 |
| 20260905041845 | 12 | 264 | 0.0 | 0.0 | 0.00 | 0.03 | 0.00 | 42 | 1016.7 |
| 20260905041758 | 12 | 251 | 0.0 | 0.0 | 0.00 | 0.03 | 0.00 | 42 | 1016.7 |
| 20260905041249 | 12 | 257 | 0.0 | 0.0 | 0.00 | 0.03 | 0.00 | 42 | 1016.7 |
| 20260905040339 | 12 | 257 | 0.0 | 0.0 | 0.00 | 0.03 | 0.00 | 42 | 1016.7 |